GFSSGP_sfc_temp_159.txt.gz
Temp
70 71 67 66 56 51 47 53 53 55 55 58 62 61 60 57 57 50 63 66 67 67 69 71 73 74 75 75 75 75 76 76 77 77 76 76 76 76 76 75 75 75 75 76 76 75 74 74 74
69 74 68 58 50 43 47 54 55 56 60 60 61 58 57 53 60 62 62 67 68 68 68 69 72 74 74 75 75 75 76 76 77 77 76 76 76 76 76 75 74 75 75 75 75 75 74 74 74
75 71 62 53 46 45 47 55 57 60 61 60 58 60 58 56 59 62 65 67 67 67 68 68 71 73 74 74 75 75 75 76 76 76 76 76 75 75 75 74 74 74 75 75 75 74 74 74 73
72 68 60 51 47 54 54 55 58 60 61 64 61 56 58 65 63 65 67 67 65 66 67 69 71 73 74 74 74 75 75 75 75 75 75 75 75 74 74 73 73 74 74 75 74 73 73 73 73
69 63 53 46 49 56 57 58 58 60 58 58 59 54 55 63 67 67 66 67 65 64 66 68 71 72 73 74 74 74 74 75 76 74 74 74 74 74 73 73 72 73 73 73 73 72 72 72 72
60 59 49 47 50 57 60 59 60 59 59 57 58 56 57 64 65 65 67 64 65 65 66 67 67 69 71 72 73 73 73 73 73 73 73 73 73 73 73 72 72 72 72 72 72 72 71 71 71
57 51 48 46 50 55 61 62 59 60 59 60 62 55 55 59 65 66 65 64 65 65 65 65 66 67 67 69 70 71 72 72 72 72 72 71 71 72 72 71 71 71 71 71 71 71 71 71 70
59 57 50 50 49 54 61 61 63 63 60 62 62 54 54 62 63 65 64 64 63 64 64 63 64 65 65 66 66 67 69 69 69 69 67 66 66 68 68 67 69 70 70 70 70 70 70 70 69
57 52 48 52 54 57 58 59 61 63 62 60 62 60 63 65 63 62 60 61 62 63 62 62 63 63 64 64 63 65 66 66 66 65 63 62 62 63 63 64 67 69 69 69 69 69 68 66 65
51 47 53 61 59 57 60 60 62 60 59 58 58 60 65 63 62 60 59 59 61 62 62 62 62 62 63 67 64 64 64 63 63 62 61 61 61 61 62 61 64 66 66 67 69 68 66 62 58
51 48 58 59 63 62 61 58 63 60 55 61 60 59 62 62 61 60 61 62 61 62 63 62 62 62 63 64 62 63 62 61 61 60 60 60 60 58 58 58 58 58 59 58 60 59 58 58 57
50 55 57 59 60 59 58 62 60 58 63 65 62 64 63 61 61 61 61 61 61 61 62 62 62 62 62 63 62 63 62 60 59 60 60 59 58 57 56 56 56 55 55 55 55 56 57 57 58
50 55 57 59 59 59 61 59 57 58 61 60 61 63 63 63 63 63 64 64 63 61 62 62 62 62 62 62 62 61 62 61 61 60 60 59 58 57 56 55 55 54 55 55 55 55 56 56 57
53 54 55 56 57 57 56 57 55 62 61 57 59 61 63 63 63 62 63 62 62 63 63 63 62 62 63 62 62 62 61 61 60 60 60 60 59 58 57 55 55 55 55 56 55 55 55 55 56
53 50 52 54 56 55 59 53 54 63 57 57 57 59 60 62 63 63 64 63 64 65 65 64 63 63 63 63 62 62 62 62 61 60 60 60 60 59 58 57 56 56 56 56 55 55 55 54 55
47 48 43 54 56 56 55 46 58 65 58 58 55 56 59 60 63 66 66 65 65 65 64 65 67 63 63 63 62 62 62 62 61 60 60 61 61 59 58 58 57 57 56 55 54 54 54 53 53
43 38 40 48 57 55 52 48 60 65 57 59 56 56 58 61 61 65 67 67 66 66 66 65 65 63 63 63 64 62 61 61 62 61 61 61 61 60 59 58 58 57 56 55 55 54 54 53 53
40 40 43 46 51 49 48 50 59 61 57 58 59 55 57 58 62 65 66 67 67 66 66 66 66 64 64 64 63 60 60 60 60 61 61 61 62 60 59 58 58 57 55 54 54 54 53 53 54
48 44 42 49 54 49 48 50 55 59 58 54 54 55 56 58 64 64 64 65 65 64 64 65 64 64 64 62 61 61 60 60 60 60 62 62 62 60 59 58 57 56 56 56 54 53 53 53 54
47 42 42 49 51 48 48 48 54 56 58 60 61 59 55 60 62 63 63 63 64 63 64 64 65 65 64 65 64 64 63 62 63 62 61 62 61 61 60 59 58 57 56 54 54 53 52 53 55
46 45 42 45 47 48 44 44 49 56 54 59 60 61 64 61 61 63 61 61 63 64 63 64 65 65 64 65 64 59 59 57 58 60 61 61 62 61 61 59 59 57 58 57 54 54 54 52 52
41 50 48 46 43 39 46 37 48 53 55 57 58 60 62 64 62 64 63 62 62 63 66 66 65 65 64 64 62 61 62 62 62 62 63 61 61 62 61 60 59 58 58 57 56 55 55 53 52
46 50 46 46 42 39 38 34 43 50 49 54 57 61 64 66 65 62 64 64 64 65 65 65 64 64 64 63 64 62 61 62 62 61 60 61 61 62 61 61 59 58 58 58 57 54 55 55 54
49 45 44 42 40 32 40 37 41 44 47 52 58 58 61 64 63 63 64 63 64 64 64 64 64 63 64 63 63 61 61 61 59 59 59 60 61 61 61 60 60 59 59 57 57 57 56 56 56
47 41 31 30 29 31 38 37 44 49 50 51 55 59 54 56 56 59 58 58 61 58 62 63 63 61 62 62 62 62 62 62 60 60 60 59 59 60 60 60 60 59 59 59 58 57 57 56 55
43 43 34 27 27 30 34 32 40 52 57 61 57 59 53 54 53 55 58 58 59 59 60 61 62 62 61 62 62 63 63 62 62 61 62 61 61 61 61 60 61 60 60 59 58 58 57 57 56
41 37 44 34 25 25 33 37 44 51 52 53 51 51 53 54 54 52 52 53 55 56 59 60 61 63 62 62 62 62 63 62 62 62 62 62 62 61 59 60 60 60 60 59 58 58 57 56 55
44 47 35 34 25 22 30 30 38 44 51 60 51 49 51 51 53 54 52 50 51 54 57 58 61 61 62 62 62 62 62 62 63 62 61 61 62 59 59 60 60 60 59 59 59 59 59 56 56
40 39 41 41 35 31 24 33 43 52 54 50 53 52 52 52 51 52 52 50 49 48 50 53 54 55 57 59 61 61 61 62 62 62 62 61 61 59 60 60 60 59 59 59 59 59 59 56 56
47 43 43 36 32 31 31 38 46 48 48 48 50 51 50 50 51 50 51 49 48 47 46 49 51 53 56 55 55 56 57 57 59 60 62 61 60 59 60 60 60 60 61 60 59 58 58 56 55

GFSSGP_sfc_temp_162.txt.gz
Temp
69 69 67 66 56 50 46 50 53 54 53 55 59 58 58 56 56 50 61 65 66 66 68 70 73 75 75 75 75 75 76 77 76 76 76 76 76 76 75 76 75 75 75 76 76 76 75 74 74
69 72 67 58 50 44 46 50 54 56 59 58 60 57 56 53 58 62 60 65 66 67 68 69 72 74 75 75 75 75 76 76 76 76 76 76 75 75 75 75 75 75 75 75 76 75 74 74 73
73 70 63 53 46 45 46 50 53 56 60 58 56 57 56 55 58 63 63 65 66 66 67 68 71 73 74 74 74 75 75 75 76 76 76 76 76 75 75 74 75 75 75 74 75 75 74 73 73
68 66 60 52 47 52 52 52 55 57 60 61 59 54 57 63 61 64 65 66 65 65 66 68 72 73 74 74 74 74 75 75 75 75 75 75 75 74 74 74 75 74 74 74 74 74 73 73 72
66 60 51 48 48 53 55 56 57 56 56 57 59 56 55 61 65 65 65 66 65 63 65 67 71 72 73 74 74 74 74 74 76 74 74 74 73 74 73 73 74 74 73 74 73 72 72 72 72
59 56 47 47 48 55 58 58 58 57 59 56 56 55 56 61 62 63 65 64 64 63 65 66 67 69 71 72 73 73 73 75 75 73 73 73 73 73 73 72 72 73 73 73 72 72 71 72 71
54 50 45 44 52 54 59 60 55 59 58 57 62 54 56 57 63 64 63 63 64 64 64 65 66 67 67 69 70 71 72 72 73 72 72 71 71 72 71 71 71 72 72 72 71 71 71 71 70
57 53 47 45 49 54 60 58 58 62 61 61 62 55 55 59 62 62 63 62 62 63 63 63 64 65 65 66 66 67 69 70 70 69 67 66 68 69 67 66 69 71 71 70 70 70 70 70 69
59 48 46 51 53 55 61 58 58 61 61 59 62 58 61 62 61 61 60 62 63 62 62 62 62 63 63 64 63 64 65 66 66 65 63 62 62 62 63 64 67 69 69 69 70 69 68 66 66
52 46 49 58 59 53 56 57 59 56 57 59 58 59 61 61 60 59 59 60 63 63 61 61 62 62 62 65 63 63 63 63 62 61 61 61 60 60 62 61 64 66 66 67 69 68 65 61 57
50 49 56 57 61 59 55 56 60 55 54 62 61 59 58 58 59 59 59 60 62 64 62 61 61 61 62 62 64 61 61 61 60 60 59 59 59 57 58 58 58 58 58 57 58 57 57 57 56
47 54 58 60 60 59 57 57 56 58 65 64 63 61 59 58 59 59 59 59 59 61 62 61 61 61 61 61 64 65 63 59 59 59 59 58 56 56 56 56 56 55 55 55 55 55 56 56 57
46 54 58 60 59 58 59 56 53 56 65 61 61 60 59 59 60 62 63 62 60 60 61 61 61 61 62 62 64 65 64 60 60 59 59 58 57 56 55 55 54 54 54 54 54 54 55 55 56
51 54 55 56 56 58 55 57 55 58 61 59 58 58 59 60 60 61 61 61 59 61 61 62 61 61 61 63 63 63 64 61 59 58 59 59 58 57 56 54 54 53 54 54 54 54 54 54 55
52 48 50 51 54 52 57 53 52 62 59 59 57 57 57 60 60 61 63 63 62 63 64 62 61 62 61 62 61 61 61 60 60 59 59 59 59 58 57 55 54 54 55 55 54 54 54 53 54
48 48 41 50 53 54 55 47 55 61 57 58 56 54 57 59 60 63 63 64 63 63 63 63 65 62 62 62 61 61 60 60 60 59 59 59 59 58 57 56 55 56 55 55 54 53 53 52 52
45 39 40 46 55 52 49 44 56 62 57 56 56 54 56 58 59 62 64 62 64 64 63 63 63 62 61 62 61 61 60 60 60 59 59 59 59 59 58 57 57 57 55 54 54 53 53 52 52
41 41 41 42 51 50 45 44 53 59 59 56 54 54 53 57 60 64 64 65 65 65 65 64 64 63 62 63 62 60 59 60 60 60 60 60 60 59 59 57 57 56 54 54 53 53 52 52 53
47 45 44 48 52 45 45 46 52 58 58 57 57 54 54 57 64 63 64 65 63 62 64 64 63 63 62 61 59 59 59 59 59 60 61 61 61 60 59 58 56 55 55 55 53 52 52 51 53
46 42 42 47 50 46 45 45 50 55 55 57 58 59 55 57 61 62 63 63 64 63 64 64 64 64 62 63 63 63 62 61 62 61 60 61 61 60 60 59 57 56 55 54 53 52 51 52 55
45 42 43 44 46 46 45 44 46 54 56 58 59 61 64 63 63 62 61 60 62 63 63 64 65 65 63 65 63 59 59 57 60 60 60 60 61 60 60 59 59 56 57 56 54 53 53 52 52
40 49 47 46 43 38 45 37 44 49 52 53 57 59 61 64 65 65 63 62 62 63 65 64 64 64 64 65 63 62 62 62 63 63 64 61 60 61 60 60 59 58 57 57 56 55 55 53 54
44 49 47 45 41 39 41 36 39 49 48 50 55 59 62 64 65 63 64 65 64 64 64 64 64 63 64 63 65 62 62 64 64 63 61 61 60 61 60 60 58 58 57 58 57 54 55 55 55
50 45 44 43 41 33 40 38 42 48 49 49 55 59 61 64 65 66 66 65 64 63 63 64 63 63 63 62 63 63 62 62 60 59 58 60 61 61 61 59 59 59 58 57 57 57 56 56 56
45 40 32 30 30 30 39 37 42 52 48 51 54 57 57 57 56 57 56 57 61 58 61 62 62 62 63 62 62 63 62 61 60 60 59 59 60 61 62 61 60 59 59 58 58 56 56 56 55
43 42 34 26 28 32 36 33 39 51 57 60 59 59 56 53 53 54 57 59 61 60 61 62 61 62 62 62 61 62 62 62 62 61 61 61 60 61 61 62 62 60 60 59 58 58 57 57 56
41 38 44 33 27 27 32 35 45 50 51 52 54 53 56 56 53 54 53 52 54 57 59 61 61 62 61 61 62 61 62 61 61 62 61 61 61 60 59 60 60 60 59 59 59 58 58 57 56
43 45 34 33 27 22 30 30 37 45 52 53 56 52 53 53 54 54 54 51 51 53 56 58 60 60 61 60 61 61 61 61 62 61 60 60 60 58 57 58 59 59 60 59 59 58 59 57 57
39 38 41 39 35 26 26 35 42 50 53 53 53 53 52 52 53 54 55 53 50 48 50 52 55 57 57 59 60 60 60 60 60 60 60 60 60 58 58 59 59 59 59 59 58 59 59 57 57
47 44 43 36 31 30 28 37 47 46 48 48 50 53 50 50 50 50 50 51 50 48 46 49 52 54 57 57 59 59 59 59 59 60 60 60 59 59 59 59 59 59 59 60 58 58 58 57 56

GFSSGP_sfc_temp_168.txt.gz
Temp
84 88 88 88 74 72 62 65 71 68 69 74 75 73 73 73 70 65 75 79 81 81 82 80 74 75 76 76 75 76 77 77 77 76 76 77 76 77 77 76 76 76 77 77 76 75 75 74 73
89 88 88 81 71 65 62 68 68 71 71 74 73 72 73 72 73 70 73 77 81 81 82 82 72 74 75 75 75 76 76 76 77 77 76 76 76 75 76 76 76 76 76 76 76 75 74 73 73
87 86 81 75 70 64 63 68 70 70 71 73 72 73 74 73 73 75 76 78 81 80 82 80 72 74 75 75 75 75 75 76 76 76 75 76 75 76 76 76 76 75 75 75 75 75 74 73 72
85 87 81 71 63 67 67 71 72 70 71 72 73 72 74 76 75 78 76 78 80 80 81 73 72 74 74 74 75 75 75 76 75 75 76 75 75 75 75 75 75 74 75 75 75 74 73 72 72
85 82 70 65 64 68 72 70 72 71 71 72 72 72 73 74 76 77 76 78 79 79 81 78 72 73 74 74 74 74 75 75 75 75 75 75 74 74 75 74 74 74 74 74 74 73 72 72 71
77 76 65 62 63 68 71 72 73 72 71 72 71 72 73 71 72 75 77 77 80 79 79 79 69 70 72 73 73 74 75 74 74 74 74 74 73 73 74 73 73 74 74 73 73 72 72 71 70
71 70 63 62 62 65 67 72 71 72 71 72 73 71 73 72 73 75 76 78 78 79 77 79 79 74 67 69 70 72 73 74 73 73 72 72 71 71 72 72 72 72 73 72 72 71 71 70 70
74 71 61 63 63 62 67 70 72 72 71 74 74 72 73 75 74 75 76 76 76 77 78 79 79 78 78 77 66 68 69 71 71 70 68 67 68 68 68 68 70 71 72 71 71 71 70 70 68
70 64 61 63 62 66 68 68 72 75 73 73 74 73 72 74 73 72 71 71 73 74 76 78 76 78 78 77 72 66 66 67 67 67 65 66 77 75 72 67 68 70 70 70 70 69 69 67 66
67 61 64 70 71 68 70 69 70 71 71 72 74 74 70 70 71 71 69 69 68 70 74 77 77 76 76 77 76 77 77 77 76 76 75 77 76 76 74 67 64 66 67 68 68 67 65 66 76
63 61 69 68 71 70 69 66 71 70 68 74 73 76 72 70 70 71 72 73 72 73 72 75 76 77 75 75 76 76 76 77 76 75 74 75 75 72 73 73 72 72 64 74 71 71 75 73 75
58 64 66 67 69 66 65 70 68 70 74 78 78 79 77 71 71 71 72 74 74 73 74 74 76 75 76 76 75 76 75 75 75 75 73 73 73 73 73 73 73 72 73 72 72 73 72 72 72
58 63 65 68 65 66 65 65 67 66 75 79 78 73 76 75 74 75 75 76 75 73 75 73 75 75 75 73 74 74 74 73 75 74 73 74 73 72 73 73 73 73 73 73 72 72 72 71 72
61 62 64 63 65 64 61 65 63 70 76 74 73 75 76 77 76 76 74 73 72 74 75 75 74 75 75 74 74 73 71 72 74 74 73 73 74 73 72 72 72 72 73 73 73 73 72 72 71
58 55 62 62 62 62 63 60 59 71 74 71 73 74 75 76 77 75 76 73 74 75 76 73 74 75 74 72 73 74 72 70 71 73 73 72 72 72 72 71 71 72 72 71 72 71 71 71 71
52 53 48 62 61 62 62 55 67 73 71 69 72 75 75 75 75 77 77 76 76 75 74 74 73 73 73 72 72 71 71 68 68 72 73 72 71 73 72 71 71 72 71 71 71 71 70 70 71
51 47 51 55 63 61 58 57 67 72 68 68 71 73 74 75 76 77 77 76 75 76 75 73 73 72 72 72 73 69 67 67 67 70 73 73 71 72 72 72 72 72 71 70 70 70 70 70 70
45 47 52 52 59 58 56 55 64 69 68 68 70 71 72 73 75 77 76 76 75 75 75 74 74 73 72 73 72 69 66 65 66 68 72 73 72 71 71 72 71 71 69 69 69 69 69 70 70
55 50 50 56 61 56 55 57 62 66 67 67 68 71 71 73 77 77 78 78 75 74 73 73 72 71 72 70 69 67 64 65 67 71 72 72 73 72 70 71 71 70 69 69 69 68 67 67 69
51 49 49 53 55 55 55 55 61 64 64 67 68 70 72 74 75 76 76 76 74 74 73 72 72 72 73 73 72 72 71 71 70 70 71 73 73 72 71 70 70 70 69 68 68 67 65 67 68
49 45 47 49 55 54 51 50 56 64 66 67 68 71 72 72 73 73 74 74 74 73 73 72 71 73 73 73 73 72 73 70 67 69 70 72 72 72 71 71 71 70 69 68 68 67 66 64 66
42 53 51 49 46 38 54 40 54 61 63 67 67 69 70 72 72 71 74 76 76 75 72 72 73 73 72 73 72 69 68 65 67 68 71 71 71 72 71 70 71 71 69 69 69 68 67 66 64
48 55 50 48 44 41 45 38 50 60 58 63 67 70 72 73 74 73 72 73 76 75 73 74 74 73 72 71 72 70 69 69 70 69 69 70 70 71 71 70 70 70 70 69 69 66 66 67 65
54 50 48 45 39 32 42 40 47 55 59 63 68 71 72 74 74 73 73 72 72 74 72 74 74 74 71 70 69 68 67 67 67 69 68 70 70 67 68 69 70 70 69 68 69 68 66 66 65
48 41 32 31 30 34 47 41 48 58 62 63 66 70 71 71 72 71 70 69 69 69 70 73 73 72 72 70 69 69 68 69 70 70 70 69 69 68 65 66 66 67 69 69 69 67 66 66 65
44 43 36 30 33 40 42 38 50 59 63 67 68 68 65 67 70 69 69 69 70 69 68 72 71 71 72 70 69 69 70 70 71 72 72 72 71 70 69 65 64 65 66 67 68 67 66 66 64
43 37 45 35 32 31 43 49 55 58 60 64 64 64 64 66 68 68 67 65 66 68 69 68 70 70 71 71 70 70 70 70 70 71 73 72 73 70 70 70 65 64 63 64 63 62 62 63 63
50 53 37 36 29 29 42 44 47 55 61 66 63 63 63 62 64 66 65 62 63 64 66 67 69 69 69 71 71 70 70 71 71 71 70 70 71 71 69 69 69 67 65 63 61 60 61 60 60
40 38 44 45 39 33 33 43 61 60 62 61 63 61 61 59 62 65 65 62 61 59 60 61 62 65 67 68 69 69 69 69 70 69 69 69 70 70 68 68 68 67 65 63 61 60 59 58 59
50 45 44 36 31 35 36 41 57 59 61 61 61 60 60 59 62 66 66 61 62 57 56 59 60 62 65 68 68 68 69 69 68 68 69 69 68 69 68 67 66 65 64 63 60 59 58 58 57

GFSSGP_sfc_temp_171.txt.gz
Temp
84 96 95 89 75 75 65 67 75 72 73 79 80 77 76 78 73 65 81 84 85 85 83 80 75 75 76 75 76 76 76 77 77 77 77 77 76 77 77 76 75 76 77 76 76 75 74 73 73
89 93 92 85 72 67 66 72 70 75 77 79 79 78 77 74 79 75 77 82 85 85 84 82 72 75 75 75 75 76 76 76 77 76 77 76 76 77 77 76 75 76 76 76 76 75 74 73 73
92 93 83 77 72 66 66 73 74 73 76 77 76 79 79 76 79 80 83 82 85 85 86 80 72 74 75 75 75 75 75 76 76 76 76 76 75 76 76 76 75 76 76 76 75 74 73 72 72
88 90 86 72 67 70 72 75 77 74 75 77 78 75 80 82 80 84 83 83 83 84 85 73 73 74 74 74 75 75 75 75 75 76 76 75 76 76 75 75 75 75 75 75 75 74 73 72 72
92 85 72 68 68 72 76 76 78 75 76 76 77 75 76 79 82 82 81 83 82 83 84 79 72 73 74 74 74 75 75 75 75 75 75 75 74 75 74 75 74 74 75 74 74 73 72 71 71
79 81 67 65 68 72 75 77 78 77 76 77 75 76 76 77 77 79 82 82 84 82 82 79 70 70 72 73 73 74 74 74 74 74 74 74 74 74 73 73 74 74 74 74 73 72 71 71 70
73 71 66 68 68 69 72 77 76 77 76 76 79 73 76 76 79 80 81 83 82 82 81 79 78 74 68 70 71 72 73 73 73 73 73 72 72 73 72 72 73 72 72 73 72 71 71 70 69
77 73 66 68 67 67 73 76 77 76 76 80 81 75 74 78 78 79 80 81 81 80 80 81 77 78 77 76 67 69 70 71 71 70 69 67 68 70 68 68 70 72 72 71 71 71 70 70 68
77 66 63 67 68 71 74 73 76 79 78 78 79 79 78 79 78 77 77 77 78 77 79 81 80 76 76 75 73 66 67 67 67 67 65 65 76 74 71 68 68 70 70 70 70 70 69 67 66
70 65 67 76 76 73 75 74 75 74 75 76 77 79 77 76 75 74 74 74 75 74 76 80 80 78 75 76 75 77 77 76 76 74 73 76 78 77 75 68 65 67 67 68 69 68 67 65 74
70 64 73 75 75 76 74 73 77 73 71 77 77 80 76 76 75 76 76 77 76 78 78 79 79 80 75 74 74 78 78 77 77 76 75 77 77 74 74 72 71 71 63 71 69 69 72 75 76
62 69 72 73 74 71 70 75 72 73 75 82 84 85 82 76 77 77 78 79 78 77 78 78 80 79 77 78 78 78 78 77 77 76 76 75 75 73 73 74 73 72 72 73 73 73 74 73 74
61 68 71 72 70 70 72 68 70 72 78 81 81 81 80 81 79 81 82 81 80 77 78 78 79 79 78 77 78 78 77 76 77 77 76 76 74 73 74 74 74 73 74 73 72 73 72 72 73
67 67 69 70 68 69 65 68 71 72 79 78 78 78 79 80 81 81 80 80 79 79 79 79 77 78 78 77 77 77 78 77 77 76 75 74 75 74 74 73 73 73 74 74 73 73 73 72 72
65 58 64 66 67 65 67 61 64 74 76 76 77 78 79 79 83 81 83 80 81 80 80 79 77 78 77 77 77 77 77 76 75 76 76 74 74 74 74 72 72 73 74 73 73 73 73 72 72
57 59 52 65 67 67 63 55 70 78 76 75 76 78 79 80 82 83 84 84 83 81 79 80 78 77 76 77 77 77 76 75 74 76 75 74 73 74 73 72 72 73 73 72 72 71 70 70 71
55 49 53 58 67 65 61 58 70 76 75 74 75 77 78 79 81 83 84 84 84 82 80 78 78 76 76 76 76 76 74 74 73 74 75 74 73 73 74 72 73 73 72 71 71 71 71 69 70
48 49 55 56 64 62 59 59 66 71 70 71 73 76 77 78 80 83 83 84 84 83 81 79 77 75 75 75 74 74 71 70 71 70 74 74 73 73 72 73 73 73 71 70 70 69 71 70 71
58 56 55 60 65 59 59 59 63 68 70 70 72 73 75 77 82 84 83 83 82 81 80 79 76 75 74 72 70 70 66 65 66 68 71 73 73 73 72 72 73 72 70 70 70 69 68 67 70
55 53 53 58 61 57 56 56 62 66 67 69 71 72 74 76 80 82 83 82 80 79 78 78 77 75 74 73 72 72 71 69 69 68 69 71 73 74 72 71 71 71 70 69 69 68 66 68 69
49 48 50 52 58 60 56 52 57 65 68 70 72 73 75 75 77 80 81 83 82 80 78 77 77 75 74 74 74 73 74 72 70 68 68 71 73 73 72 72 71 70 70 68 68 68 66 64 67
45 56 54 51 46 40 57 41 55 62 64 68 71 74 76 77 78 79 79 80 81 80 80 79 77 76 74 75 74 72 70 68 70 70 70 70 72 72 72 71 71 70 70 68 69 69 67 66 64
49 57 53 51 48 47 49 42 52 62 60 65 70 73 76 78 78 79 79 80 81 80 79 78 77 75 74 73 75 73 71 72 72 72 69 70 70 72 72 71 70 70 70 69 69 68 67 67 65
57 52 51 49 42 32 44 43 48 57 62 66 71 74 75 77 78 79 80 79 79 79 78 77 76 77 74 74 74 73 71 71 71 69 68 68 70 69 70 70 69 69 70 69 69 69 67 66 66
52 46 32 30 30 33 52 43 50 61 65 67 68 72 74 77 75 74 74 75 76 76 75 75 76 75 77 74 73 73 72 71 71 70 69 68 67 68 68 69 68 68 69 70 69 68 67 66 65
46 45 36 29 32 39 49 40 50 64 68 68 70 72 71 71 74 73 72 72 72 72 74 74 73 74 76 76 72 73 72 71 72 72 71 69 69 69 70 69 69 68 69 69 70 68 67 66 65
46 39 50 39 37 33 44 51 59 63 63 66 68 70 69 70 70 71 71 70 70 69 70 72 71 72 73 74 73 71 71 71 71 71 72 72 72 71 72 69 68 68 68 68 68 66 65 64 64
51 53 36 35 28 28 41 45 49 57 62 67 68 67 68 69 70 70 71 71 69 68 68 68 69 69 71 71 73 71 71 70 71 71 70 71 72 72 71 70 67 66 66 66 66 64 64 63 62
45 43 44 44 38 34 34 45 62 62 65 64 66 65 66 66 67 70 70 71 71 68 66 65 66 65 67 69 70 70 70 70 70 70 70 71 71 72 71 70 68 66 64 63 63 62 62 60 60
51 47 47 38 36 40 39 41 64 63 64 64 64 64 66 67 69 70 69 69 71 70 70 65 64 61 63 66 68 68 69 69 69 69 70 71 70 71 70 69 69 68 66 64 61 60 60 59 58

GFSSGP_sfc_temp_174.txt.gz
Temp
79 88 88 78 62 63 58 59 67 66 67 71 74 69 68 69 65 54 74 79 80 77 76 76 74 75 75 75 75 76 76 77 77 77 77 77 77 77 76 76 76 76 77 76 75 75 74 74 73
80 88 80 72 60 57 57 63 65 67 72 74 70 71 69 65 73 70 70 79 81 79 77 75 72 74 75 75 75 76 76 76 77 77 77 77 77 77 77 76 76 76 77 76 75 74 74 73 73
88 91 70 65 62 57 57 67 66 69 71 71 67 71 71 68 74 72 76 79 80 79 79 74 72 74 75 75 75 75 75 76 76 76 76 77 76 76 76 77 76 76 75 76 75 74 73 72 72
84 80 75 61 61 64 66 68 71 68 68 71 71 67 71 76 74 76 78 79 77 78 76 71 73 74 74 74 75 75 75 75 75 75 76 76 76 75 76 76 75 75 75 76 75 74 72 72 72
83 75 62 60 62 67 70 71 72 69 69 70 69 66 66 73 77 77 76 78 75 76 73 73 72 73 74 74 74 74 75 75 75 75 75 75 75 75 75 75 75 75 75 75 74 73 72 71 71
70 72 58 57 64 67 70 71 70 71 71 70 66 66 64 71 73 73 76 76 77 75 74 73 69 70 72 73 73 74 74 74 74 74 74 74 74 75 74 74 74 74 74 74 73 72 71 71 70
66 62 58 61 64 65 69 71 69 69 71 69 70 64 65 69 73 74 75 76 76 75 75 73 72 71 68 70 71 72 72 73 73 73 73 73 72 73 72 72 74 73 74 72 72 71 70 70 69
68 65 59 61 61 63 69 70 73 71 69 75 72 65 62 68 73 74 73 74 74 73 73 73 72 71 71 68 67 68 70 70 70 69 68 67 70 71 69 68 72 72 72 72 71 70 70 69 68
73 58 56 61 63 66 70 67 70 73 69 69 72 71 71 72 72 70 68 69 70 71 72 73 72 73 72 70 68 66 67 67 67 66 65 64 67 67 70 70 69 71 70 70 70 70 69 67 66
63 56 60 70 72 70 69 68 69 66 68 67 70 70 73 71 69 67 66 66 67 67 69 71 72 72 72 74 69 68 69 67 67 67 67 67 67 67 69 64 66 68 67 68 69 69 67 64 62
64 57 67 71 74 73 70 68 70 65 63 69 68 69 70 69 68 67 68 69 69 68 68 71 71 72 72 72 70 67 66 65 66 66 66 66 68 64 63 61 62 62 61 62 63 62 62 63 64
59 66 69 69 71 69 66 70 67 67 67 75 73 73 71 69 69 69 69 70 70 70 70 71 71 71 71 73 71 68 68 67 65 66 66 65 64 63 63 61 61 61 61 61 61 60 62 64 66
61 63 67 69 68 65 68 64 64 65 71 74 75 75 72 71 71 72 73 73 72 71 72 72 70 71 71 72 71 70 67 67 66 66 67 66 64 62 63 63 62 61 61 61 61 62 63 63 64
64 64 63 67 66 66 63 62 63 66 70 70 72 71 72 73 73 72 72 72 73 73 72 73 72 72 72 71 71 70 68 67 67 66 66 67 65 63 64 63 63 62 62 62 62 62 62 61 62
63 56 59 61 63 62 64 56 58 67 69 68 70 70 71 72 74 73 74 73 73 74 73 73 72 73 72 71 71 70 67 68 67 66 66 66 66 64 64 63 62 62 63 63 62 62 62 61 62
54 53 45 59 62 62 59 47 62 68 67 67 68 69 70 72 73 74 76 75 75 74 74 73 75 73 72 72 71 71 70 68 67 66 66 67 67 66 64 63 62 63 62 62 60 60 59 59 59
51 42 46 52 63 61 56 49 62 67 66 64 65 67 68 70 73 74 74 74 75 76 75 73 73 71 71 71 72 70 69 68 67 67 67 67 67 67 65 64 63 63 62 60 61 59 59 58 58
44 46 48 48 58 59 54 54 60 65 65 63 63 65 66 68 70 74 75 75 75 75 74 74 74 72 71 71 71 70 69 68 68 67 67 67 68 68 67 65 63 64 61 59 59 59 59 59 59
52 50 48 54 61 52 52 54 58 62 62 62 63 65 66 69 73 74 74 74 73 72 72 74 73 72 70 69 67 67 66 66 66 66 68 69 69 67 66 65 65 65 63 62 60 59 58 57 59
50 47 47 55 57 52 51 51 57 60 61 63 63 64 66 67 69 72 72 72 71 71 71 73 74 73 71 70 69 68 68 66 66 66 66 67 68 67 67 66 66 66 64 62 61 60 58 57 59
49 47 47 46 53 53 49 46 51 59 62 64 65 66 68 68 68 69 70 70 70 69 71 73 74 73 72 71 70 67 66 63 63 63 64 65 67 68 67 66 66 66 66 64 62 62 60 58 58
43 53 52 49 45 35 48 33 47 54 57 59 62 62 64 66 70 72 71 69 70 70 71 72 73 73 72 71 69 67 65 63 64 64 65 64 66 68 68 67 67 66 66 65 64 64 62 59 58
46 53 51 49 44 43 41 37 42 51 51 56 59 62 64 66 67 67 68 69 70 70 68 69 73 72 72 70 70 67 66 67 68 67 65 64 66 67 68 67 67 66 66 66 65 64 63 62 61
54 50 48 45 40 30 38 39 38 47 53 54 59 61 64 64 65 64 67 68 67 67 67 66 68 72 71 70 69 68 67 67 66 66 65 65 65 66 67 68 67 66 66 65 65 64 64 63 62
50 42 26 28 28 27 44 37 43 52 57 57 59 61 61 62 62 63 62 62 63 62 63 65 66 68 71 70 69 69 69 68 67 67 66 65 64 64 65 67 66 66 66 66 66 64 64 63 62
45 42 31 24 26 29 42 32 42 56 60 62 61 62 62 60 60 60 61 61 61 61 61 62 63 65 68 70 69 70 70 70 69 69 68 67 66 66 67 66 67 66 66 66 66 65 64 64 63
43 37 46 35 31 29 35 42 51 56 56 57 58 59 61 59 60 59 58 60 60 59 59 59 60 62 64 66 70 69 70 69 69 69 70 69 68 67 67 67 65 66 66 65 65 64 63 63 63
47 48 35 35 24 21 31 33 40 49 54 57 57 57 59 58 58 60 60 60 60 60 58 58 59 59 61 62 65 68 69 69 69 70 68 68 69 68 67 67 66 66 65 65 64 64 64 63 64
43 40 40 41 34 27 25 33 51 54 55 53 55 56 56 53 57 58 59 59 59 58 58 57 56 56 57 59 61 62 65 67 68 68 68 68 68 69 68 68 67 65 64 64 63 64 65 63 63
48 44 42 32 28 32 31 34 54 53 55 55 55 58 54 55 58 58 58 58 58 58 58 58 57 55 55 56 58 61 62 62 65 67 68 68 67 67 68 68 67 65 64 63 62 62 63 62 61